Weather History for KELO - October, 2014

Change the Weather History Date:

Thursday, October 16, 2014

  Actual Average Record
Temperature  
Mean Temperature 44 °F -  
Max Temperature 60 °F 49 °F 66 °F (2012)
Min Temperature 28 °F 32 °F 15 °F (2002)
Degree Days  
Heating Degree Days 21    
Moisture  
Dew Point 35 °F    
Average Humidity 75    
Maximum Humidity 100    
Minimum Humidity 45    
Precipitation  
Precipitation 0.00 in - - ()
Sea Level Pressure  
Sea Level Pressure 29.68 in    
Wind  
Wind Speed 3 mph (SE)    
Max Wind Speed 16 mph    
Max Gust Speed 22 mph    
Visibility 10 miles    
Events      
Averages and records for this station are not official NWS values.
T = Trace of Precipitation, MM = Missing Value Source: NWS Daily Summary

Daily Weather History Graph

Daily Weather History Graph

Search for Another Location

Airport or City:

Trip Planner

Search our weather history database for the weather conditions in past years. The results will help you decide how hot, cold, wet, or windy it might be!

Date:

Astronomy

Oct. 16, 2014 Rise Set
Actual Time 7:27 AM CDT 6:17 PM CDT
Civil Twilight 6:56 AM CDT 6:48 PM CDT
Nautical Twilight 6:20 AM CDT 7:24 PM CDT
Astronomical Twilight 5:44 AM CDT 7:59 PM CDT
Moon 12:11 AM CDT (10/16) 2:53 PM CDT (10/16)
Length of Visible Light 11h 51m
Length of Day
10h 49m
Last Quarter, 41% of the Moon is Illuminated
Oct 16
Last Quarter
Oct 23
New
Oct 30
First Quarter
Nov 6
Full
Nov 14
Last Quarter

Hourly Weather History & Observations

Time (CDT) Temp. Windchill Dew Point Humidity Pressure Visibility Wind Dir Wind Speed Gust Speed Precip Events Conditions
12:13 AM 33.8 °F - 30.2 °F 87% 29.88 in 10.0 mi Calm Calm - N/A   Clear
12:32 AM 30.2 °F - 30.2 °F 100% 29.87 in 10.0 mi Calm Calm - N/A   Clear
12:53 AM 30.2 °F - 30.2 °F 100% 29.86 in 10.0 mi Calm Calm - N/A   Clear
1:13 AM 30.2 °F - 28.4 °F 93% 29.86 in 10.0 mi Calm Calm - N/A   Clear
1:33 AM 32.0 °F - 28.4 °F 87% 29.86 in 10.0 mi Calm Calm - N/A   Clear
1:52 AM 30.2 °F - 30.2 °F 100% 29.86 in 10.0 mi Calm Calm - N/A   Clear
2:13 AM 30.2 °F - 28.4 °F 93% 29.85 in 10.0 mi Calm Calm - N/A   Clear
2:33 AM 30.2 °F - 28.4 °F 93% 29.86 in 10.0 mi Calm Calm - N/A   Clear
2:52 AM 30.2 °F - 28.4 °F 93% 29.85 in 10.0 mi Calm Calm - N/A   Clear
3:13 AM 30.2 °F - 28.4 °F 93% 29.84 in 10.0 mi Calm Calm - N/A   Clear
3:33 AM 28.4 °F - 28.4 °F 100% 29.84 in 10.0 mi Calm Calm - N/A   Clear
3:53 AM 28.4 °F - 28.4 °F 100% 29.84 in 10.0 mi Calm Calm - N/A   Clear
4:13 AM 28.4 °F - 26.6 °F 93% 29.83 in 10.0 mi Calm Calm - N/A   Clear
4:33 AM 28.4 °F - 28.4 °F 100% 29.83 in 10.0 mi Calm Calm - N/A   Clear
4:53 AM 28.4 °F - 26.6 °F 93% 29.83 in 10.0 mi Calm Calm - N/A   Clear
5:13 AM 28.4 °F - 26.6 °F 93% 29.82 in 10.0 mi Calm Calm - N/A   Clear
5:33 AM 28.4 °F - 26.6 °F 93% 29.81 in 10.0 mi Calm Calm - N/A   Clear
5:53 AM 28.4 °F - 26.6 °F 93% 29.81 in 10.0 mi Calm Calm - N/A   Clear
6:13 AM 28.4 °F - 28.4 °F 100% 29.80 in 10.0 mi Calm Calm - N/A   Clear
6:32 AM 30.2 °F - 28.4 °F 93% 29.80 in 10.0 mi Calm Calm - N/A   Clear
6:53 AM 28.4 °F - 28.4 °F 100% 29.79 in 10.0 mi Calm Calm - N/A   Clear
7:13 AM 30.2 °F - 28.4 °F 93% 29.78 in 10.0 mi Calm Calm - N/A   Clear
7:32 AM 28.4 °F - 28.4 °F 100% 29.77 in 10.0 mi Calm Calm - N/A   Clear
7:53 AM 30.2 °F - 28.4 °F 93% 29.77 in 10.0 mi Calm Calm - N/A   Clear
8:13 AM 30.2 °F - 28.4 °F 93% 29.76 in 10.0 mi Calm Calm - N/A   Clear
8:32 AM 30.2 °F - 30.2 °F 100% 29.75 in 10.0 mi Calm Calm - N/A   Clear
8:52 AM 32.0 °F - 30.2 °F 93% 29.75 in 10.0 mi Calm Calm - N/A   Clear
9:13 AM 37.4 °F - 35.6 °F 93% 29.74 in 10.0 mi Calm Calm - N/A   Clear
9:33 AM 46.4 °F 42.9 °F 42.8 °F 87% 29.74 in 10.0 mi SSE 6.9 mph - N/A   Clear
9:53 AM 46.4 °F 42.4 °F 42.8 °F 87% 29.72 in 10.0 mi SE 8.1 mph - N/A   Clear
10:12 AM 48.2 °F - 41.0 °F 76% 29.71 in 10.0 mi SSE 9.2 mph - N/A   Clear
10:33 AM 51.8 °F - 41.0 °F 67% 29.71 in 10.0 mi SSE 10.4 mph - N/A   Clear
10:52 AM 53.6 °F - 39.2 °F 58% 29.71 in 10.0 mi SSE 15.0 mph 20.7 mph N/A   Clear
11:13 AM 53.6 °F - 41.0 °F 62% 29.71 in 10.0 mi SSE 11.5 mph 16.1 mph N/A   Clear
11:33 AM 55.4 °F - 41.0 °F 58% 29.71 in 10.0 mi SE 10.4 mph - N/A   Clear
11:53 AM 55.4 °F - 39.2 °F 54% 29.70 in 10.0 mi SSE 13.8 mph 19.6 mph N/A   Clear
12:13 PM 57.2 °F - 41.0 °F 55% 29.69 in 10.0 mi SSE 13.8 mph 21.9 mph N/A   Clear
12:32 PM 57.2 °F - 41.0 °F 55% 29.68 in 10.0 mi SSE 13.8 mph 18.4 mph N/A   Clear
12:53 PM 57.2 °F - 41.0 °F 55% 29.66 in 10.0 mi SE 15.0 mph 19.6 mph N/A   Clear
1:12 PM 59.0 °F - 39.2 °F 48% 29.65 in 10.0 mi SE 16.1 mph - N/A   Clear
1:33 PM 59.0 °F - 39.2 °F 48% 29.64 in 10.0 mi SE 13.8 mph - N/A   Clear
1:53 PM 60.8 °F - 39.2 °F 45% 29.63 in 10.0 mi SE 11.5 mph - N/A   Clear
2:12 PM 60.8 °F - 41.0 °F 48% 29.61 in 10.0 mi SE 13.8 mph - N/A   Clear
2:33 PM 60.8 °F - 41.0 °F 48% 29.59 in 10.0 mi SE 13.8 mph - N/A   Clear
2:52 PM 60.8 °F - 41.0 °F 48% 29.58 in 10.0 mi SE 15.0 mph - N/A   Clear
3:13 PM 60.8 °F - 42.8 °F 52% 29.57 in 10.0 mi ESE 13.8 mph - N/A   Clear
3:32 PM 60.8 °F - 41.0 °F 48% 29.57 in 10.0 mi SE 13.8 mph - N/A   Clear
3:53 PM 60.8 °F - 41.0 °F 48% 29.57 in 10.0 mi SE 12.7 mph - N/A   Clear
4:13 PM 59.0 °F - 41.0 °F 51% 29.58 in 10.0 mi SE 11.5 mph - N/A   Clear
4:32 PM 59.0 °F - 39.2 °F 48% 29.57 in 10.0 mi ESE 11.5 mph - N/A   Clear
4:53 PM 57.2 °F - 39.2 °F 51% 29.57 in 10.0 mi SE 10.4 mph - N/A   Clear
5:13 PM 57.2 °F - 39.2 °F 51% 29.55 in 10.0 mi SE 12.7 mph - N/A   Clear
5:32 PM 55.4 °F - 39.2 °F 54% 29.54 in 10.0 mi SE 13.8 mph - N/A   Clear
5:53 PM 53.6 °F - 41.0 °F 62% 29.56 in 10.0 mi SSE 8.1 mph - N/A   Clear
6:13 PM 51.8 °F - 41.0 °F 67% 29.56 in 10.0 mi SE 6.9 mph - N/A   Clear
6:32 PM 50.0 °F - 39.2 °F 66% 29.56 in 10.0 mi SSE 4.6 mph - N/A   Clear
6:53 PM 48.2 °F - 39.2 °F 71% 29.56 in 10.0 mi SE 8.1 mph - N/A   Clear
7:13 PM 48.2 °F - 39.2 °F 71% 29.56 in 10.0 mi ESE 5.8 mph - N/A   Clear
7:32 PM 46.4 °F 43.5 °F 39.2 °F 76% 29.56 in 10.0 mi ESE 5.8 mph - N/A   Clear
7:53 PM 46.4 °F 43.5 °F 37.4 °F 71% 29.56 in 10.0 mi ESE 5.8 mph - N/A   Scattered Clouds
8:13 PM 46.4 °F 42.9 °F 37.4 °F 71% 29.56 in 10.0 mi ESE 6.9 mph - N/A   Mostly Cloudy
8:32 PM 46.4 °F 43.5 °F 37.4 °F 71% 29.55 in 10.0 mi ESE 5.8 mph - N/A   Overcast
8:53 PM 46.4 °F 45.2 °F 37.4 °F 71% 29.54 in 10.0 mi ESE 3.5 mph - N/A   Overcast
9:13 PM 46.4 °F - 37.4 °F 71% 29.54 in 10.0 mi Calm Calm - N/A   Overcast
9:33 PM 46.4 °F - 37.4 °F 71% 29.53 in 10.0 mi Calm Calm - N/A   Overcast
9:52 PM 46.4 °F 45.2 °F 37.4 °F 71% 29.52 in 10.0 mi ENE 3.5 mph - N/A   Overcast
10:13 PM 46.4 °F - 37.4 °F 71% 29.52 in 10.0 mi Calm Calm - N/A   Overcast
10:33 PM 46.4 °F 45.2 °F 37.4 °F 71% 29.51 in 10.0 mi East 3.5 mph - N/A   Overcast
10:52 PM 46.4 °F - 39.2 °F 76% 29.51 in 10.0 mi Calm Calm - N/A   Overcast
11:11 PM 44.6 °F - 39.2 °F 81% 29.52 in 10.0 mi Calm Calm - N/A   Overcast
11:33 PM 44.6 °F - 39.2 °F 81% 29.53 in 10.0 mi Calm Calm - N/A   Overcast
11:53 PM 44.6 °F - 39.2 °F 81% 29.53 in 10.0 mi Calm Calm - N/A   Overcast